Starlink 4057

operational
NORAD ID: 53269 Int'l Des: 2022-086 Owner: SPXS Country: US Constellation: starlink
LEOCIRCULAR

关于 Starlink 4057

正在加载描述...

实时位置

正在加载3D地球...

即将过境

高度历史

Altitude vs Time

uPlot chart will show altitude changes over time

两行轨道根数

1 53269U 22086AD 25303.61505537 .00000429 00000-0 45077-4 0 9990
2 53269 53.2162 48.0462 0001655 82.3082 277.8098 15.08843783181569
Epoch: Oct 30, 2025 • Age: 20 hours

当前状态

高度 559.2 km
速度 7.58 km/s
星下点 -52.87°S, 119.23°E
发射日期 Jul 24, 2022
运行时间 3.2 years
类型 internet

技术详情

分类 Payload
质量 297.00 kg
干质量 275.00 kg
总质量 297.00 kg
长度 0.20 m
直径 2.80 m
跨度 9.00 m
形状 Box + pan
制造商 SPXS
平台类型 Starlink
阶段状态 In Orbit
所有者/国家 SPXS/US

大型星座

Loading constellations...